User: anonymous   Login
Location: Moy Burn
(57.3833°N, 4.0667°W)
Time: 20:10:00
(UTC+00:00)
Language:

Cosmos 1470 Rocket - Orbit

View from above orbital plane
View from above orbital plane
View from above satellite
View from above satellite

Ground track
Ground track

The orbit data is extracted from the following two-line orbital elements,

1 14148U 83061B   20304.20843521 +.00000093 +00000-0 +84001-5 0  9990
2 14148 082.5217 196.5004 0020316 232.9644 286.7778 14.83350524996196
Epoch (UTC): 30 October 2020 05:00:08
Eccentricity: 0.0020316
inclination: 82.5217°
perigee height: 604 km
apogee height: 633 km
right ascension of ascending node: 196.5004°
argument of perigee: 232.9644°
revolutions per day: 14.83350524
mean anomaly at epoch: 286.7778°
orbit number at epoch: 99619

The dashed part of the orbit path shows where the satellite is in the earth's shadow,  

DLR